period_start,C,m1,H,J0,J1,J2,J3,J4,J5,JA,JB,JC,JD,JJ,JK,JN,#
2018-07-24 00:01:06,-0.02,0.49,0.00,24.78,28.70,31.72,13.98,46.44,1021.01,2020.99,3219.45,2936.65,3371.80,600.13,595.03,25.77,0000 0000 0000 0000 000000
2018-07-24 00:06:07,0.00,0.49,0.00,24.79,28.70,31.71,13.90,46.42,1021.01,2021.00,3219.60,2936.77,3371.88,600.12,595.14,25.82,0000 0000 0000 0000 000000
2018-07-24 00:11:09,0.01,0.49,0.00,24.80,28.69,31.69,13.91,46.62,1021.02,2021.02,3219.14,2936.73,3371.94,599.74,594.76,25.87,0000 0000 0000 0000 000000
2018-07-24 00:16:10,0.04,0.49,0.00,24.79,28.67,31.68,13.94,46.42,1021.10,2021.26,3219.02,2936.74,3371.95,600.04,595.01,25.92,0000 0000 0000 0000 000000
2018-07-24 00:21:11,0.03,0.50,0.00,24.73,28.67,31.70,13.98,46.46,1021.31,2021.75,3219.00,2936.60,3371.97,600.15,595.47,25.97,0000 0000 0000 0000 000000
2018-07-24 00:26:12,0.00,0.50,0.00,24.67,28.65,31.73,13.92,46.61,1021.43,2021.89,3219.00,2936.82,3371.98,600.02,595.59,26.02,0000 0000 0000 0000 000000
2018-07-24 00:31:13,0.00,0.50,0.00,24.67,28.62,31.71,13.92,46.47,1021.49,2021.98,3219.04,2936.96,3371.99,600.01,595.54,26.07,0000 0000 0000 0000 000000
2018-07-24 00:36:15,0.00,0.50,0.00,24.70,28.60,31.66,13.89,46.42,1021.50,2021.99,3219.20,2936.98,3371.99,599.82,595.29,26.12,0000 0000 0000 0000 000000
2018-07-24 00:41:16,0.00,0.50,0.00,24.74,28.59,31.63,13.99,46.48,1021.50,2021.99,3219.34,2936.99,3372.00,600.34,595.83,26.17,0000 0000 0000 0000 000000
2018-07-24 00:46:17,0.00,0.50,0.00,24.76,28.57,31.56,13.92,46.52,1021.51,2021.99,3219.41,2936.99,3372.01,600.22,595.57,26.22,0000 0000 0000 0000 000000
2018-07-24 00:51:18,0.00,0.50,0.00,24.78,28.55,31.52,13.89,46.34,1021.52,2022.00,3219.52,2937.00,3372.03,599.90,595.25,26.27,0000 0000 0000 0000 000000
2018-07-24 00:56:20,0.00,0.50,0.00,24.82,28.55,31.47,13.96,46.37,1021.52,2022.00,3219.37,2937.00,3372.02,600.24,595.50,26.32,0000 0000 0000 0000 000000
2018-07-24 01:01:21,0.00,0.50,0.00,24.82,28.55,31.44,13.93,46.47,1021.62,2022.02,3219.04,2937.00,3372.04,599.94,595.34,26.37,0000 0000 0000 0000 000000
2018-07-24 01:06:23,-0.00,0.50,0.00,24.76,28.53,31.43,13.82,46.43,1021.71,2022.05,3219.05,2937.00,3372.02,599.72,595.16,26.42,0000 0000 0000 0000 000000
2018-07-24 01:11:24,-0.00,0.50,0.00,24.81,28.52,31.29,13.83,46.38,1021.88,2022.03,3219.05,2937.00,3372.00,599.89,595.36,26.47,0000 0000 0000 0000 000000
2018-07-24 01:16:25,-0.00,0.50,0.00,24.87,28.52,31.22,13.90,46.38,1021.92,2022.01,3219.05,2937.00,3372.00,599.95,595.40,26.52,0000 0000 0000 0000 000000
2018-07-24 01:21:26,0.00,0.50,0.00,24.89,28.53,31.17,13.88,46.38,1021.98,2022.01,3218.99,2937.00,3371.97,599.95,595.30,26.57,0000 0000 0000 0000 000000
2018-07-24 01:26:27,0.04,0.50,0.00,24.92,28.54,31.12,13.86,46.33,1021.99,2022.01,3218.46,2936.63,3371.31,599.89,595.17,26.62,0000 0000 0000 0000 000000
2018-07-24 01:31:29,0.01,0.50,0.00,24.92,28.55,31.13,13.88,46.38,1021.99,2022.00,3218.13,2936.17,3371.01,599.93,595.25,26.67,0000 0000 0000 0000 000000
2018-07-24 01:36:30,0.00,0.50,0.00,24.96,28.55,31.11,13.87,46.33,1021.99,2022.00,3218.04,2936.05,3371.00,599.94,595.08,26.72,0000 0000 0000 0000 000000
2018-07-24 01:41:31,0.00,0.50,0.00,25.08,28.57,31.10,13.83,46.30,1022.00,2022.00,3218.00,2936.01,3370.97,599.94,595.11,26.77,0000 0000 0000 0000 000000
2018-07-24 01:46:32,0.00,0.50,0.00,25.25,28.59,31.13,13.84,46.27,1022.03,2022.00,3218.00,2936.00,3370.79,599.91,594.64,26.82,0000 0000 0000 0000 000000
2018-07-24 01:51:33,0.02,0.50,0.00,25.30,28.61,31.17,13.83,46.25,1022.03,2021.98,3217.69,2935.93,3370.12,600.07,594.73,26.87,0000 0000 0000 0000 000000
2018-07-24 01:56:35,0.02,0.50,0.00,25.28,28.62,31.22,13.82,46.24,1022.13,2021.98,3217.04,2935.24,3369.99,599.70,594.40,26.92,0000 0000 0000 0000 000000
2018-07-24 02:01:36,0.02,0.50,0.00,25.26,28.65,31.23,13.89,46.50,1022.33,2021.98,3216.75,2935.00,3369.48,599.80,594.69,26.97,0000 0000 0000 0000 000000
2018-07-24 02:06:37,0.01,0.50,0.00,25.27,28.67,31.27,13.85,46.33,1022.42,2021.94,3215.95,2934.81,3368.90,599.65,594.58,27.02,0000 0000 0000 0000 000000
2018-07-24 02:11:39,0.04,0.51,0.00,25.26,28.69,31.30,13.85,46.29,1022.47,2021.91,3215.01,2934.03,3368.07,600.23,595.16,27.07,0000 0000 0000 0000 000000
2018-07-24 02:16:40,0.02,0.51,0.00,25.25,28.70,31.33,13.88,46.33,1022.48,2021.90,3214.15,2933.81,3367.82,600.19,595.07,27.12,0000 0000 0000 0000 000000
2018-07-24 02:21:41,-0.00,0.51,0.00,25.23,28.72,31.35,13.86,46.42,1022.48,2021.66,3214.00,2933.20,3367.17,599.96,594.90,27.17,0000 0000 0000 0000 000000
2018-07-24 02:26:42,0.00,0.51,0.00,25.23,28.73,31.39,13.84,46.36,1022.48,2021.36,3213.33,2932.83,3366.61,599.76,594.94,27.22,0000 0000 0000 0000 000000
2018-07-24 02:31:44,0.03,0.51,0.00,25.22,28.75,31.41,13.91,46.42,1022.48,2021.05,3212.31,2932.03,3365.60,600.18,595.15,27.27,0000 0000 0000 0000 000000
2018-07-24 02:36:45,0.01,0.51,0.00,25.22,28.76,31.43,13.87,46.48,1022.50,2021.03,3212.00,2931.77,3365.01,599.69,594.69,27.32,0000 0000 0000 0000 000000
2018-07-24 02:41:46,0.04,0.51,0.00,25.21,28.77,31.45,13.90,46.40,1022.54,2021.01,3211.52,2931.10,3364.56,600.29,595.40,27.37,0000 0000 0000 0000 000000
2018-07-24 02:46:48,0.00,0.51,0.00,25.20,28.78,31.49,13.89,46.42,1022.59,2021.00,3211.01,2930.98,3364.01,599.96,595.10,27.42,0000 0000 0000 0000 000000
2018-07-24 02:51:48,0.01,0.51,0.00,25.20,28.80,31.52,13.83,46.39,1022.70,2021.00,3210.98,2930.69,3363.96,600.16,595.35,27.47,0000 0000 0000 0000 000000
2018-07-24 02:56:50,0.04,0.52,0.00,25.19,28.80,31.54,13.89,46.46,1022.84,2021.00,3210.23,2930.05,3363.12,599.81,595.00,27.52,0000 0000 0000 0000 000000
2018-07-24 03:01:51,0.00,0.52,0.00,25.18,28.80,31.56,13.97,46.41,1022.91,2021.00,3210.00,2929.98,3362.96,600.30,595.64,27.57,0000 0000 0000 0000 000000
2018-07-24 03:06:53,0.02,0.52,0.00,25.17,28.82,31.62,13.87,46.38,1022.96,2020.99,3209.88,2929.70,3362.34,600.18,595.63,27.62,0000 0000 0000 0000 000000
2018-07-24 03:11:54,0.02,0.52,0.00,25.17,28.82,31.60,13.86,46.52,1022.96,2020.98,3209.33,2929.12,3362.02,599.80,595.14,27.67,0000 0000 0000 0000 000000
2018-07-24 03:16:56,-0.00,0.52,0.00,25.17,28.82,31.72,13.93,46.58,1022.96,2020.97,3209.00,2929.00,3361.95,600.10,595.38,27.73,0000 0000 0000 0000 000000
2018-07-24 03:21:57,0.00,0.52,0.00,25.17,28.82,31.70,13.97,46.53,1022.97,2020.96,3209.00,2929.00,3361.59,600.14,595.41,27.78,0000 0000 0000 0000 000000
2018-07-24 03:26:59,0.00,0.52,0.00,25.17,28.83,31.73,13.98,46.52,1022.97,2020.93,3208.99,2929.00,3361.25,600.36,595.86,27.83,0000 0000 0000 0000 000000
2018-07-24 03:32:00,0.00,0.52,0.00,25.18,28.85,31.74,13.91,46.53,1023.00,2020.88,3208.97,2928.99,3361.05,600.13,595.39,27.88,0000 0000 0000 0000 000000
2018-07-24 03:37:02,-0.02,0.52,0.00,25.15,28.85,31.76,13.89,46.45,1023.01,2020.67,3208.67,2928.85,3361.00,599.81,595.38,27.93,0000 0000 0000 0000 000000
2018-07-24 03:42:03,0.04,0.52,0.00,25.16,28.85,31.78,13.87,46.42,1023.04,2020.60,3208.05,2928.25,3361.00,599.99,595.36,27.98,0000 0000 0000 0000 000000
2018-07-24 03:47:04,0.01,0.52,0.00,25.17,28.85,31.76,13.93,46.48,1023.05,2020.78,3208.00,2928.01,3360.56,599.98,595.42,28.03,0000 0000 0000 0000 000000
2018-07-24 03:52:05,0.01,0.52,0.00,25.17,28.85,31.77,13.94,46.51,1023.27,2020.71,3207.98,2928.00,3360.20,600.08,595.64,28.08,0000 0000 0000 0000 000000
2018-07-24 03:57:06,0.00,0.52,0.00,25.17,28.85,31.79,13.91,46.53,1023.37,2020.79,3207.97,2928.00,3360.19,599.95,595.59,28.13,0000 0000 0000 0000 000000
2018-07-24 04:02:08,-0.02,0.52,0.00,25.16,28.85,31.78,13.90,46.56,1023.43,2020.58,3207.95,2928.00,3360.02,599.76,595.63,28.18,0000 0000 0000 0000 000000
2018-07-24 04:07:09,0.01,0.52,0.00,25.16,28.86,31.78,14.00,46.56,1023.44,2020.48,3207.69,2928.00,3360.00,600.39,596.10,28.23,0000 0000 0000 0000 000000
2018-07-24 04:12:10,0.02,0.52,0.00,25.16,28.87,31.81,13.99,46.57,1023.44,2020.52,3207.12,2928.00,3359.99,600.15,595.81,28.28,0000 0000 0000 0000 000000
2018-07-24 04:17:11,-0.01,0.52,0.00,25.17,28.87,31.79,13.85,46.53,1023.45,2020.54,3207.01,2927.98,3359.99,599.91,595.67,28.33,0000 0000 0000 0000 000000
2018-07-24 04:22:12,-0.01,0.52,0.00,25.16,28.87,31.81,13.92,46.54,1023.45,2020.51,3207.01,2927.98,3359.98,600.17,595.92,28.38,0000 0000 0000 0000 000000
2018-07-24 04:27:13,-0.00,0.52,0.00,25.16,28.87,31.82,13.92,46.62,1023.45,2020.32,3207.00,2927.96,3359.92,599.87,595.57,28.43,0000 0000 0000 0000 000000
2018-07-24 04:32:15,0.01,0.52,0.00,25.16,28.87,31.80,13.92,46.67,1023.45,2020.47,3207.00,2927.97,3359.71,599.87,595.66,28.48,0000 0000 0000 0000 000000
2018-07-24 04:37:16,0.01,0.52,0.00,25.17,28.87,31.83,13.92,46.56,1023.45,2020.47,3206.99,2927.96,3359.43,599.97,595.55,28.53,0000 0000 0000 0000 000000
2018-07-24 04:42:17,-0.02,0.52,0.00,25.15,28.87,31.80,13.95,46.66,1023.45,2020.23,3206.99,2927.95,3359.17,599.93,595.74,28.58,0000 0000 0000 0000 000000
2018-07-24 04:47:19,0.01,0.52,0.00,25.16,28.87,31.83,13.88,46.65,1023.46,2020.30,3206.97,2927.96,3359.18,599.63,595.34,28.63,0000 0000 0000 0000 000000
2018-07-24 04:52:20,-0.02,0.52,0.00,25.17,28.87,31.81,13.88,46.56,1023.47,2020.29,3206.97,2927.90,3359.09,599.79,595.49,28.68,0000 0000 0000 0000 000000
2018-07-24 04:57:22,0.03,0.52,0.00,25.17,28.87,31.82,13.93,46.56,1023.48,2020.22,3206.54,2927.61,3359.02,600.10,595.90,28.73,0000 0000 0000 0000 000000
2018-07-24 05:02:23,0.04,0.52,0.00,25.17,28.88,31.86,13.88,46.59,1023.52,2020.37,3206.01,2927.06,3359.00,599.82,595.58,28.78,0000 0000 0000 0000 000000
2018-07-24 05:07:25,0.02,0.53,0.00,25.17,28.89,31.82,13.93,46.70,1023.62,2020.71,3206.00,2927.03,3359.00,599.99,595.70,28.83,0000 0000 0000 0000 000000
2018-07-24 05:12:26,0.00,0.53,0.00,25.17,28.90,31.82,13.93,46.78,1023.81,2020.79,3206.00,2927.02,3358.97,599.87,595.83,28.88,0000 0000 0000 0000 000000
2018-07-24 05:17:27,0.00,0.53,0.00,25.19,28.90,31.81,13.92,46.73,1023.89,2020.82,3205.88,2927.00,3358.90,600.16,596.14,28.93,0000 0000 0000 0000 000000
2018-07-24 05:22:29,0.02,0.53,0.00,25.19,28.90,31.82,13.93,46.68,1023.91,2020.84,3205.26,2927.00,3358.52,599.91,595.83,28.98,0000 0000 0000 0000 000000
2018-07-24 05:27:30,0.01,0.53,0.00,25.18,28.90,31.83,13.95,46.82,1023.88,2020.88,3205.02,2926.98,3358.07,599.95,595.90,29.03,0000 0000 0000 0000 000000
2018-07-24 05:32:31,0.01,0.53,0.00,25.19,28.90,31.86,13.90,46.85,1023.90,2020.95,3204.99,2926.82,3358.00,600.04,595.98,29.08,0000 0000 0000 0000 000000
2018-07-24 05:37:32,0.01,0.53,0.00,25.20,28.90,31.83,13.93,46.77,1023.92,2020.93,3204.82,2926.46,3357.99,599.98,595.90,29.13,0000 0000 0000 0000 000000
2018-07-24 05:42:33,0.01,0.53,0.00,25.20,28.90,31.84,13.91,46.81,1023.92,2020.94,3204.49,2926.14,3357.98,600.01,596.00,29.18,0000 0000 0000 0000 000000
2018-07-24 05:47:35,0.01,0.53,0.00,25.20,28.90,31.83,13.95,46.82,1023.90,2020.91,3204.07,2926.03,3357.77,600.01,595.90,29.23,0000 0000 0000 0000 000000
2018-07-24 05:52:36,0.01,0.53,0.00,25.20,28.90,31.82,13.96,46.77,1023.90,2020.87,3204.01,2926.00,3357.18,600.30,596.21,29.28,0000 0000 0000 0000 000000
2018-07-24 05:57:38,-0.01,0.53,0.00,25.20,28.90,31.82,13.97,46.79,1023.93,2020.75,3204.00,2926.00,3357.00,600.24,596.13,29.33,0000 0000 0000 0000 000000
2018-07-24 06:02:39,-0.01,0.53,0.00,25.20,28.90,31.83,13.95,46.81,1023.94,2020.72,3203.97,2925.99,3357.00,600.09,595.92,29.38,0000 0000 0000 0000 000000
2018-07-24 06:07:40,0.02,0.53,0.00,25.21,28.90,31.82,13.97,46.88,1023.94,2020.80,3203.89,2925.99,3357.00,600.01,595.94,29.43,0000 0000 0000 0000 000000
2018-07-24 06:12:41,-0.02,0.53,0.00,25.22,28.90,31.79,13.89,46.73,1023.94,2020.66,3203.90,2925.99,3357.00,599.86,595.76,29.48,0000 0000 0000 0000 000000
2018-07-24 06:17:43,-0.01,0.53,0.00,25.22,28.90,31.82,13.90,46.74,1023.93,2020.52,3203.93,2925.99,3356.99,599.76,595.70,29.53,0000 0000 0000 0000 000000
2018-07-24 06:22:44,-0.00,0.53,0.00,25.22,28.90,31.83,13.95,46.86,1023.94,2020.34,3203.67,2925.98,3356.84,599.84,595.65,29.58,0000 0000 0000 0000 000000
2018-07-24 06:27:45,0.04,0.53,0.00,25.22,28.91,31.82,13.86,46.74,1023.94,2020.25,3203.04,2925.42,3356.08,599.81,595.69,29.63,0000 0000 0000 0000 000000
2018-07-24 06:32:46,0.00,0.53,0.00,25.23,28.92,31.80,13.93,46.68,1023.94,2020.10,3202.73,2925.01,3355.76,600.12,595.91,29.68,0000 0000 0000 0000 000000
2018-07-24 06:37:47,0.01,0.53,0.00,25.23,28.92,31.82,13.95,46.82,1023.94,2020.07,3202.29,2925.00,3355.23,600.19,595.95,29.73,0000 0000 0000 0000 000000
2018-07-24 06:42:49,0.00,0.53,0.00,25.25,28.92,31.84,13.89,46.64,1023.94,2020.10,3202.21,2924.98,3355.08,599.87,595.66,29.78,0000 0000 0000 0000 000000
2018-07-24 06:47:50,0.00,0.53,0.00,25.25,28.92,31.85,13.92,46.53,1023.95,2020.03,3202.01,2924.88,3355.00,600.00,595.66,29.83,0000 0000 0000 0000 000000
2018-07-24 06:52:51,0.02,0.53,0.00,25.25,28.92,31.87,13.90,46.64,1023.94,2020.04,3201.91,2924.22,3354.98,599.64,595.61,29.88,0000 0000 0000 0000 000000
2018-07-24 06:57:53,0.02,0.53,0.00,25.26,28.92,31.84,13.95,46.57,1023.94,2020.02,3201.16,2924.00,3354.38,600.12,595.88,29.93,0000 0000 0000 0000 000000
2018-07-24 07:02:54,0.00,0.53,0.00,25.25,28.92,31.84,13.90,46.52,1023.95,2020.02,3201.01,2924.00,3354.05,600.37,596.17,29.98,0000 0000 0000 0000 000000
2018-07-24 07:07:55,0.00,0.53,0.00,25.26,28.93,31.82,14.03,46.77,1023.95,2020.03,3201.00,2923.99,3354.00,600.50,596.29,30.03,0000 0000 0000 0000 000000
2018-07-24 07:12:56,0.00,0.53,0.00,25.27,28.94,31.83,13.99,46.67,1024.11,2020.04,3200.97,2923.98,3354.00,600.28,596.02,30.08,0000 0000 0000 0000 000000
2018-07-24 07:17:57,0.00,0.53,0.00,25.27,28.94,31.84,13.88,46.58,1024.18,2020.04,3200.95,2923.99,3354.00,599.53,595.54,30.13,0000 0000 0000 0000 000000
2018-07-24 07:22:59,0.00,0.53,0.00,25.27,28.95,31.87,13.95,46.75,1024.28,2020.04,3200.75,2923.98,3353.98,599.85,595.74,30.18,0000 0000 0000 0000 000000
2018-07-24 07:28:00,0.01,0.53,0.00,25.27,28.95,31.86,13.87,46.56,1024.31,2020.04,3200.29,2923.95,3353.93,599.64,595.63,30.23,0000 0000 0000 0000 000000
2018-07-24 07:33:01,0.01,0.54,0.00,25.27,28.95,31.87,13.93,46.72,1024.30,2020.02,3200.09,2923.90,3353.56,599.91,595.86,30.28,0000 0000 0000 0000 000000
2018-07-24 07:38:02,0.01,0.54,0.00,25.27,28.95,31.82,13.88,46.58,1024.28,2020.01,3200.03,2923.74,3353.11,599.77,595.78,30.33,0000 0000 0000 0000 000000
2018-07-24 07:43:03,0.01,0.54,0.00,25.27,28.95,31.86,13.85,46.52,1024.29,2020.00,3200.00,2923.53,3353.02,599.95,596.01,30.38,0000 0000 0000 0000 000000
2018-07-24 07:48:04,0.00,0.54,0.00,25.27,28.95,31.86,13.93,46.67,1024.26,2020.00,3200.00,2923.15,3353.00,600.03,596.06,30.43,0000 0000 0000 0000 000000
2018-07-24 07:53:05,-0.00,0.54,0.00,25.28,28.95,31.89,13.91,46.61,1024.38,2020.00,3199.97,2923.18,3353.00,599.92,595.98,30.48,0000 0000 0000 0000 000000
2018-07-24 07:58:07,0.00,0.54,0.00,25.27,28.96,31.89,13.81,46.65,1024.42,2020.00,3199.92,2923.08,3353.00,599.68,595.65,30.53,0000 0000 0000 0000 000000
2018-07-24 08:03:08,0.00,0.54,0.00,25.27,28.97,31.87,13.93,46.59,1024.42,2020.00,3199.80,2923.07,3352.99,599.85,595.97,30.58,0000 0000 0000 0000 000000
2018-07-24 08:08:09,0.00,0.54,0.00,25.28,28.97,31.90,13.92,46.69,1024.43,2020.00,3199.55,2923.03,3352.97,599.97,596.00,30.63,0000 0000 0000 0000 000000
2018-07-24 08:13:10,0.01,0.54,0.00,25.29,28.97,31.87,13.95,46.63,1024.43,2020.00,3199.35,2923.02,3352.78,600.08,596.13,30.68,0000 0000 0000 0000 000000
2018-07-24 08:18:12,0.01,0.54,0.00,25.29,28.97,31.84,13.96,46.66,1024.43,2020.00,3199.06,2923.01,3352.24,599.76,595.76,30.73,0000 0000 0000 0000 000000
2018-07-24 08:23:13,0.00,0.54,0.00,25.30,28.97,31.88,13.87,46.63,1024.43,2020.00,3199.00,2923.00,3352.04,599.87,595.81,30.78,0000 0000 0000 0000 000000
2018-07-24 08:28:14,0.00,0.54,0.00,25.30,28.97,31.89,13.89,46.49,1024.43,2020.00,3199.00,2923.00,3352.00,599.65,595.66,30.83,0000 0000 0000 0000 000000
2018-07-24 08:33:15,0.00,0.54,0.00,25.30,28.98,31.89,13.94,46.57,1024.42,2020.00,3198.99,2923.00,3352.00,600.51,596.47,30.88,0000 0000 0000 0000 000000
2018-07-24 08:38:17,0.00,0.54,0.00,25.30,28.99,31.91,13.98,46.67,1024.43,2020.00,3198.94,2923.00,3351.99,600.79,596.75,30.93,0000 0000 0000 0000 000000
2018-07-24 08:43:18,0.01,0.54,0.00,25.30,29.00,31.87,13.97,46.67,1024.43,2020.00,3198.37,2922.97,3351.89,600.17,596.19,30.98,0000 0000 0000 0000 000000
2018-07-24 08:48:19,0.01,0.54,0.00,25.30,29.00,31.94,13.97,46.80,1024.43,2020.00,3198.05,2922.87,3351.26,600.39,596.39,31.03,0000 0000 0000 0000 000000
2018-07-24 08:53:21,0.02,0.54,0.00,25.32,29.00,31.91,13.88,46.52,1024.43,2020.00,3198.01,2922.42,3351.02,599.96,595.80,31.08,0000 0000 0000 0000 000000
2018-07-24 08:58:22,0.00,0.54,0.00,25.31,29.00,31.88,13.95,46.47,1024.43,2019.99,3197.95,2922.02,3350.99,600.37,596.40,31.13,0000 0000 0000 0000 000000
2018-07-24 09:03:23,0.02,0.54,0.00,25.31,29.00,31.90,13.92,46.66,1024.43,2019.99,3197.39,2922.00,3350.49,600.09,596.00,31.19,0000 0000 0000 0000 000000
2018-07-24 09:08:24,0.00,0.54,0.00,25.32,29.00,31.92,13.92,46.52,1024.45,2019.98,3197.00,2921.98,3350.02,600.07,596.03,31.24,0000 0000 0000 0000 000000
2018-07-24 09:13:25,0.00,0.54,0.00,25.32,29.00,31.90,13.94,46.75,1024.44,2019.97,3196.95,2921.89,3350.00,600.39,596.42,31.29,0000 0000 0000 0000 000000
2018-07-24 09:18:27,0.02,0.54,0.00,25.32,29.01,31.90,13.97,46.95,1024.45,2019.99,3196.41,2921.54,3349.97,600.19,596.11,31.34,0000 0000 0000 0000 000000
2018-07-24 09:23:28,0.00,0.55,0.00,25.32,29.02,31.93,13.94,46.77,1024.51,2019.97,3196.06,2921.31,3349.93,600.09,596.14,31.39,0000 0000 0000 0000 000000
2018-07-24 09:28:29,0.01,0.55,0.00,25.33,29.02,31.92,13.99,46.81,1024.57,2019.96,3196.00,2921.15,3349.68,600.56,596.56,31.44,0000 0000 0000 0000 000000
2018-07-24 09:33:30,0.01,0.55,0.00,25.34,29.02,31.93,13.85,46.95,1024.53,2019.95,3196.00,2921.07,3349.20,599.86,595.80,31.49,0000 0000 0000 0000 000000
2018-07-24 09:38:31,0.00,0.55,0.00,25.34,29.02,31.93,13.89,46.87,1024.56,2019.94,3196.00,2921.03,3349.03,599.78,595.67,31.54,0000 0000 0000 0000 000000
2018-07-24 09:43:33,0.00,0.55,0.00,25.35,29.02,31.92,13.92,46.82,1024.64,2019.95,3195.98,2921.03,3349.01,599.98,596.13,31.59,0000 0000 0000 0000 000000
2018-07-24 09:48:35,0.00,0.55,0.00,25.35,29.02,31.91,13.85,46.85,1024.76,2019.95,3195.90,2921.01,3349.00,599.87,596.05,31.64,0000 0000 0000 0000 000000
2018-07-24 09:53:36,0.00,0.55,0.00,25.34,29.02,31.95,13.92,46.84,1024.85,2019.95,3195.72,2921.01,3349.00,599.84,595.93,31.69,0000 0000 0000 0000 000000
2018-07-24 09:58:37,0.01,0.55,0.00,25.34,29.03,31.91,13.92,46.89,1024.81,2019.97,3195.25,2921.00,3349.00,599.94,596.15,31.74,0000 0000 0000 0000 000000
2018-07-24 10:03:38,-0.00,0.55,0.00,25.35,29.03,31.95,13.92,46.83,1024.79,2019.95,3195.25,2921.00,3348.99,599.76,595.90,31.79,0000 0000 0000 0000 000000
2018-07-24 10:08:40,0.00,0.55,0.00,25.35,29.04,31.99,13.92,46.82,1024.86,2019.97,3195.04,2921.00,3348.98,600.07,596.23,31.84,0000 0000 0000 0000 000000
2018-07-24 10:13:41,0.00,0.55,0.00,25.35,29.05,31.98,13.98,46.76,1024.90,2019.96,3195.01,2921.00,3348.97,600.24,596.40,31.89,0000 0000 0000 0000 000000
2018-07-24 10:18:42,0.00,0.55,0.00,25.35,29.05,31.97,13.96,46.74,1024.89,2019.98,3195.00,2921.00,3348.95,600.11,596.06,31.94,0000 0000 0000 0000 000000
2018-07-24 10:23:43,0.00,0.55,0.00,25.34,29.05,31.95,13.95,46.73,1024.91,2019.99,3195.00,2921.00,3348.92,600.36,596.49,31.99,0000 0000 0000 0000 000000
2018-07-24 10:28:44,0.00,0.55,0.00,25.35,29.05,31.98,13.89,46.66,1024.92,2019.98,3195.00,2921.00,3348.72,600.04,596.19,32.04,0000 0000 0000 0000 000000
2018-07-24 10:33:45,0.01,0.55,0.00,25.35,29.05,31.98,13.91,46.57,1024.92,2019.97,3194.97,2920.99,3348.16,600.04,596.27,32.09,0000 0000 0000 0000 000000
2018-07-24 10:38:47,0.00,0.55,0.00,25.34,29.05,31.95,14.01,46.58,1024.92,2019.97,3194.94,2920.98,3348.04,600.13,596.24,32.14,0000 0000 0000 0000 000000
2018-07-24 10:43:48,0.00,0.55,0.00,25.33,29.05,31.96,13.97,46.66,1024.92,2019.94,3194.92,2920.99,3348.01,600.32,596.53,32.19,0000 0000 0000 0000 000000
2018-07-24 10:48:49,0.01,0.55,0.00,25.33,29.05,31.98,13.92,46.55,1024.92,2019.98,3194.67,2920.97,3348.00,599.64,595.87,32.24,0000 0000 0000 0000 000000
2018-07-24 10:53:51,0.01,0.55,0.00,25.33,29.05,31.99,14.00,46.67,1024.92,2019.97,3194.18,2920.91,3348.00,600.28,596.33,32.29,0000 0000 0000 0000 000000
2018-07-24 10:58:52,0.00,0.55,0.00,25.33,29.05,32.02,13.85,46.59,1024.92,2019.97,3194.02,2920.77,3347.99,599.73,595.93,32.34,0000 0000 0000 0000 000000
2018-07-24 11:03:53,0.01,0.55,0.00,25.32,29.05,32.02,14.00,46.66,1024.93,2019.96,3194.00,2920.47,3347.97,600.17,596.44,32.39,0000 0000 0000 0000 000000
2018-07-24 11:08:54,-0.00,0.55,0.00,25.32,29.05,31.98,13.84,46.40,1024.93,2019.96,3194.00,2920.37,3347.91,599.47,595.69,32.44,0000 0000 0000 0000 000000
2018-07-24 11:13:55,0.01,0.55,0.00,25.31,29.05,32.00,13.92,46.42,1024.93,2019.96,3193.99,2920.21,3347.81,600.03,596.32,32.49,0000 0000 0000 0000 000000
2018-07-24 11:18:56,0.01,0.55,0.00,25.32,29.05,31.98,13.91,46.67,1024.92,2019.94,3193.96,2920.10,3347.37,600.29,596.58,32.54,0000 0000 0000 0000 000000
2018-07-24 11:23:57,0.01,0.55,0.00,25.32,29.05,32.00,13.93,46.85,1024.92,2019.95,3193.70,2920.05,3347.10,600.29,596.43,32.59,0000 0000 0000 0000 000000
2018-07-24 11:28:59,0.00,0.55,0.00,25.32,29.05,32.01,13.88,46.84,1024.92,2019.91,3193.15,2920.01,3347.01,599.79,595.98,32.64,0000 0000 0000 0000 000000
2018-07-24 11:34:00,0.00,0.55,0.00,25.30,29.05,32.03,13.88,47.02,1024.92,2019.91,3193.03,2920.00,3347.00,600.07,596.34,32.69,0000 0000 0000 0000 000000
2018-07-24 11:39:01,-0.01,0.55,0.00,25.30,29.05,32.01,13.89,47.02,1024.92,2019.85,3193.00,2920.00,3347.00,599.85,596.17,32.75,0000 0000 0000 0000 000000
2018-07-24 11:44:03,0.01,0.55,0.00,25.30,29.05,32.00,13.95,47.09,1024.92,2019.92,3193.00,2920.00,3347.00,600.03,596.37,32.80,0000 0000 0000 0000 000000
2018-07-24 11:49:04,0.00,0.55,0.00,25.30,29.05,32.02,13.99,47.09,1024.92,2019.96,3193.00,2920.00,3347.00,600.28,596.45,32.85,0000 0000 0000 0000 000000
2018-07-24 11:54:05,-0.00,0.55,0.00,25.27,29.05,32.02,13.86,47.05,1024.92,2019.94,3192.99,2920.00,3347.00,599.86,596.20,32.90,0000 0000 0000 0000 000000
2018-07-24 11:59:06,0.00,0.55,0.00,25.28,29.05,32.01,13.97,47.06,1024.91,2019.97,3192.99,2920.00,3346.99,600.03,596.45,32.95,0000 0000 0000 0000 000000
2018-07-24 12:04:08,0.00,0.55,0.00,25.27,29.05,32.02,13.91,47.15,1024.91,2019.95,3192.96,2920.00,3346.97,600.08,596.35,33.00,0000 0000 0000 0000 000000
2018-07-24 12:09:09,0.00,0.55,0.00,25.26,29.05,32.03,13.89,47.08,1024.91,2019.96,3192.95,2920.00,3346.94,599.80,596.10,33.05,0000 0000 0000 0000 000000
2018-07-24 12:14:10,0.00,0.55,0.00,25.25,29.05,32.02,14.00,46.99,1024.90,2019.99,3192.88,2920.00,3346.92,600.09,596.46,33.10,0000 0000 0000 0000 000000
2018-07-24 12:19:12,0.00,0.55,0.00,25.25,29.05,32.00,13.96,47.06,1024.90,2019.98,3192.71,2919.99,3346.85,599.90,596.34,33.15,0000 0000 0000 0000 000000
2018-07-24 12:24:13,0.01,0.55,0.00,25.25,29.05,32.01,13.94,46.90,1024.88,2019.98,3192.38,2919.99,3346.66,599.81,596.16,33.20,0000 0000 0000 0000 000000
2018-07-24 12:29:14,-0.00,0.55,0.00,25.25,29.05,32.02,14.00,47.03,1024.89,2019.98,3192.38,2919.99,3346.63,600.69,597.04,33.25,0000 0000 0000 0000 000000
2018-07-24 12:34:16,0.00,0.55,0.00,25.25,29.04,32.01,14.04,47.01,1024.92,2019.97,3192.11,2919.99,3346.22,600.43,596.83,33.30,0000 0000 0000 0000 000000
2018-07-24 12:39:17,0.00,0.55,0.00,25.25,29.04,32.01,13.92,47.04,1024.91,2019.99,3192.02,2919.99,3346.15,599.62,596.05,33.35,0000 0000 0000 0000 000000
2018-07-24 12:44:18,0.00,0.55,0.00,25.24,29.04,32.01,14.00,46.92,1024.91,2019.99,3192.00,2919.99,3346.04,600.21,596.61,33.40,0000 0000 0000 0000 000000
2018-07-24 12:49:20,0.00,0.55,0.00,25.24,29.03,31.99,13.94,46.82,1024.92,2019.99,3192.00,2919.99,3346.02,600.40,596.82,33.45,0000 0000 0000 0000 000000
2018-07-24 12:54:21,0.00,0.55,0.00,25.23,29.03,32.00,13.99,47.01,1024.91,2019.99,3192.00,2919.98,3346.03,600.42,596.86,33.50,0000 0000 0000 0000 000000